TimeEST,TemperatureF,Dew PointF,Humidity,Sea Level PressureIn,VisibilityMPH,Wind Direction,Wind SpeedMPH,Gust SpeedMPH,PrecipitationIn,Events,Conditions,WindDirDegrees,DateUTC
12:52 AM,59.0,57.0,93,30.29,10.0,South,10.4,19.6,N/A,,Mostly Cloudy,170,2012-11-13 05:52:00
1:52 AM,59.0,55.9,90,30.28,10.0,South,9.2,16.1,N/A,,Overcast,190,2012-11-13 06:52:00
2:52 AM,59.0,55.9,90,30.25,10.0,SSW,10.4,25.3,0.00,,Overcast,200,2012-11-13 07:52:00
3:52 AM,60.1,57.9,93,30.23,10.0,South,10.4,19.6,N/A,,Overcast,180,2012-11-13 08:52:00
4:52 AM,59.0,57.0,93,30.22,10.0,SSW,11.5,20.7,N/A,,Overcast,200,2012-11-13 09:52:00
5:52 AM,57.9,55.9,93,30.22,10.0,SSW,12.7,21.9,N/A,,Overcast,200,2012-11-13 10:52:00
6:52 AM,59.0,57.0,93,30.22,9.0,South,13.8,21.9,0.00,Rain,Light Rain,190,2012-11-13 11:52:00
7:43 AM,59.0,57.2,94,30.22,7.0,SSW,10.4,19.6,0.01,,Overcast,200,2012-11-13 12:43:00
7:52 AM,59.0,57.0,93,30.22,9.0,SSW,10.4,19.6,0.01,,Overcast,200,2012-11-13 12:52:00
8:16 AM,59.0,57.2,94,30.21,10.0,South,10.4,23.0,N/A,,Mostly Cloudy,190,2012-11-13 13:16:00
8:52 AM,61.0,55.9,83,30.21,10.0,SSW,10.4,21.9,N/A,,Partly Cloudy,200,2012-11-13 13:52:00
9:52 AM,62.1,57.9,86,30.21,10.0,South,9.2,-,N/A,,Overcast,180,2012-11-13 14:52:00
10:29 AM,60.8,57.2,88,30.21,8.0,SW,8.1,-,N/A,,Overcast,230,2012-11-13 15:29:00
10:37 AM,60.8,57.2,88,30.21,1.8,SW,9.2,17.3,0.05,Rain,Light Rain,230,2012-11-13 15:37:00
10:47 AM,60.8,59.0,94,30.21,4.0,SW,5.8,18.4,0.06,Rain,Light Rain,220,2012-11-13 15:47:00
10:52 AM,60.1,59.0,96,30.21,7.0,SW,9.2,-,0.06,Rain,Light Rain,220,2012-11-13 15:52:00
11:28 AM,59.0,57.2,94,30.22,6.0,NW,11.5,17.3,0.00,Rain,Light Rain,310,2012-11-13 16:28:00
11:42 AM,51.8,48.2,88,30.24,7.0,NW,10.4,21.9,0.01,Rain,Light Rain,320,2012-11-13 16:42:00
11:50 AM,51.8,48.2,88,30.24,8.0,Variable,6.9,21.9,0.02,Rain,Light Rain,0,2012-11-13 16:50:00
11:52 AM,51.1,48.9,92,30.25,9.0,Variable,5.8,18.4,0.02,Rain,Light Rain,0,2012-11-13 16:52:00
12:23 PM,51.8,48.2,88,30.22,6.0,North,8.1,-,0.01,Rain,Light Rain,360,2012-11-13 17:23:00
12:52 PM,50.0,48.9,96,30.23,4.0,Variable,4.6,-,0.03,Rain,Light Rain,0,2012-11-13 17:52:00
1:01 PM,50.0,48.2,94,30.23,2.0,North,5.8,-,0.03,Rain,Rain,360,2012-11-13 18:01:00
1:16 PM,50.0,48.2,94,30.22,3.0,North,4.6,-,0.04,Rain,Light Rain,360,2012-11-13 18:16:00
1:23 PM,50.0,48.2,94,30.22,2.5,Variable,5.8,-,0.05,Rain,Rain,0,2012-11-13 18:23:00
1:36 PM,50.0,48.2,94,30.21,5.0,NNE,6.9,-,0.06,Rain,Light Rain,20,2012-11-13 18:36:00
1:47 PM,50.0,48.2,94,30.22,10.0,North,5.8,-,0.06,,Overcast,10,2012-11-13 18:47:00
1:52 PM,50.0,48.9,96,30.22,10.0,Calm,Calm,-,0.06,,Overcast,0,2012-11-13 18:52:00
2:52 PM,50.0,48.0,93,30.23,10.0,North,5.8,-,0.01,,Overcast,360,2012-11-13 19:52:00
3:16 PM,50.0,48.2,94,30.25,4.0,NW,5.8,-,0.01,Rain,Rain,310,2012-11-13 20:16:00
3:30 PM,50.0,48.2,94,30.25,5.0,NNW,6.9,-,0.01,Rain,Light Rain,340,2012-11-13 20:30:00
3:52 PM,48.9,48.0,97,30.26,3.0,North,6.9,-,0.04,Rain,Rain,350,2012-11-13 20:52:00
3:57 PM,48.2,48.2,100,30.26,2.5,Variable,3.5,-,0.00,Rain,Rain,0,2012-11-13 20:57:00
4:11 PM,48.2,46.4,93,30.26,3.0,Variable,4.6,-,0.02,Rain,Light Rain,0,2012-11-13 21:11:00
4:52 PM,48.0,46.0,93,30.28,4.0,Variable,5.8,-,0.07,Rain,Light Rain,0,2012-11-13 21:52:00
5:31 PM,46.4,44.6,93,30.29,10.0,NNW,6.9,-,0.01,Rain,Light Rain,330,2012-11-13 22:31:00
5:52 PM,46.9,45.0,93,30.30,5.0,Variable,4.6,-,0.01,Rain,Light Rain,0,2012-11-13 22:52:00
6:52 PM,45.0,42.1,90,30.32,10.0,Variable,5.8,-,0.00,,Overcast,0,2012-11-13 23:52:00
7:52 PM,44.1,41.0,89,30.34,10.0,Variable,6.9,20.7,0.01,Rain,Light Rain,0,2012-11-14 00:52:00
8:15 PM,44.6,41.0,87,30.32,10.0,Variable,5.8,-,0.00,Rain,Light Rain,0,2012-11-14 01:15:00
8:52 PM,44.1,41.0,89,30.35,9.0,North,9.2,-,0.01,Rain,Light Rain,350,2012-11-14 01:52:00
9:52 PM,45.0,41.0,86,30.36,10.0,North,8.1,-,0.03,,Overcast,350,2012-11-14 02:52:00
10:04 PM,44.6,42.8,93,30.35,10.0,NNW,8.1,-,N/A,,Overcast,340,2012-11-14 03:04:00
10:52 PM,46.0,43.0,89,30.36,10.0,Variable,6.9,-,0.02,Rain,Light Rain,0,2012-11-14 03:52:00
11:52 PM,45.0,42.1,90,30.38,7.0,NNE,9.2,16.1,0.03,Rain,Light Rain,20,2012-11-14 04:52:00